Погода в Заволжском

Россия / Астраханская область     46°58′50″N   47°36′39″E
темп.,
°C
ветер,
м/с
пор.,
м/с
влажн.,
%
обл.,
%
осадки,
мм/ч
давл.,
гПа
погр.,
м
13 апреля, вт
вт1301:00+16вюв71327100 0.0 1025287
04:00+14в71335100 0.0 1025236
07:00+14вюв7134279 0.0 1025234
10:00+18вюв9123118 0.0 1026455
13:00+20вюв1114201 0.0 1025863
16:00+20юв9122216 0.0 1024893
19:00+18вюв7102975 0.0 1023246
22:00+15в453723 0.0 102369
14 апреля, ср
ср1401:00+14всв51139100 0.0 1021175
04:00+14в61337100 0.0 1020228
07:00+13в71443100 0.0 1019258
10:00+18вюв81137100 0.0 1019363
13:00+21вюв8102836 0.0 1018932
16:00+21вюв792616 0.0 1016915
19:00+19юв563499 0.0 1016116
22:00+16юв3440100 0.0 101726
15 апреля, чт
чт1501:00+16ссв5539100 0.0 101446
04:00+15св6942100 0.0 1014139
07:00+14юв235199 0.0 101444
10:00+17юв3344100 0.0 1014277
13:00+18ссз2245100 0.1 1014971
16:00+16ссв2351100 0.3 1014226
19:00+16сз455274 0.0 101499
22:00
16 апреля, пт
пт1601:00+13сз45695 0.0 101474
04:00+13зсз48715 0.0 1015116
07:00+12сз47775 0.0 1015164
10:00+15сз56636 0.0 1016427
13:00+17сз565388 0.0 1016735
16:00+18ссз4547100 0.0 1016871
19:00+17ссз345298 0.0 101667
22:00+15ссз335958 0.0 101528
17 апреля, сб
сб1701:00+15ссв225693 0.0 101710
04:00+14юв1257100 0.0 101713
07:00+13с5873100 0.0 1018205
10:00+16св3458100 0.0 1017324
13:00+16сз4461100 0.1 1018736
16:00+11сз81086100 2.9 1019288
19:00+12сз4575100 0.0 1019331
22:00+12сз2374100 0.0 101997